weather.gov     
National Weather Service

Regional Weather Roundup
NWS Homepage
This page is being discontinued on March 12, 2014.
The same data is available at this site. Please update your bookmarks.
Thank you, and we apologize for the inconvenience.
Please send an email to SR-SRH.Webmaster@noaa.gov with any concerns.


Current Version
Previous Version:    01  02  03  04  05  06  07  08  09  10  11  12  13  14  15  16  17  18  19  20  21  22  23  24  25  26  27  28  29  30  
   31  32  33  34  35  36  37  38  39  40  41  42  43  44  45  46  47  48  49  50  51  52  53  54  55  56  57  58  59  60  
[Printable]
238
ASUS44 KOHX 281815
RWROHX
MIDDLE TENNESSEE HOURLY WEATHER ROUNDUP
NATIONAL WEATHER SERVICE NASHVILLE TN
100 PM CDT MON JUL 28 2014

NOTE: "FAIR" INDICATES FEW OR NO CLOUDS BELOW 12,000 FEET WITH
NO SIGNIFICANT WEATHER AND/OR OBSTRUCTIONS TO VISIBILITY.

* THESE REPORTS ARE NOT UNDER NWS QUALITY CONTROL AND MAY NOT
  REPORT WEATHER SUCH AS PRECIPITATION AND FOG.


TNZ005>011-023>034-057-059-062>066-078-080-281900
...NORTHERN MIDDLE TENNESSEE...

CITY           SKY/WX    TMP DP  RH WIND       PRES   REMARKS
CLARKSVILLE    MOSUNNY   83  58  42 N15       30.02F
CROSSVILLE     PTSUNNY   75  59  57 NW12      30.03F
DICKSON        MOSUNNY   77  63  61 NW9       30.03F
LEBANON        MOSUNNY   80  60  50 NW10      30.00F
LIVINGSTON       N/A     75  59  57 NW9       30.01F
NASHVILLE      PTSUNNY   83  60  45 N13       30.01F
WEST NASHVILLE   N/A     81  59  47 NW13      30.01F
SMYRNA         PTSUNNY   84  62  47 N10       30.01F
SPARTA         MOSUNNY   81  64  57 NW9       30.01S
$$
TNZ056-058-060-061-075>077-079-093>097-281900
...SOUTHERN MIDDLE TENNESSEE...

CITY           SKY/WX    TMP DP  RH WIND       PRES   REMARKS
COLUMBIA       MOSUNNY   82  63  51 NW8       30.02S
FAYETTEVILLE   SUNNY     81  57  44 NW13      30.02S
LEWISBURG      PTSUNNY   80  61  52 VRB7      30.02F
MCMINNVILLE    PTSUNNY   77  64  65 NW8       30.02S
MURFREESBORO   MOSUNNY   79  59  50 N9        30.01S
SHELBYVILLE    MOSUNNY   81  63  54 NW12      30.02F
TULLAHOMA      MOSUNNY   79  61  53 N12       30.03S
WINCHESTER     MOSUNNY   79  61  53 NW8       30.01F
$$


...KEY TO REMARKS...
VSB - VISIBILITY IN MILES
WCI - WIND CHILL INDEX
HX  - HEAT INDEX





U.S. Dept. of Commerce
NOAA National Weather Service
1325 East West Highway
Silver Spring, MD 20910
E-mail: w-nws.webmaster@noaa.gov
Page last modified: May 16, 2007
NATIONAL WEATHER SERVICE: for Safety, for Work, for Fun - FOR LIFE